Disclaimer

Please do not use the information listed here in-flight or in-navigation, as they are not provided to us by the airports but are provided by volunteers, so they might be outdated.

Search


Regions


Airport information page

No radio frequency information is available.

Airport informations:
Latitude: 22° 55' 18.05" S
Longitude: 042° 04' 27.37" W
Elevation: 14 feet - 4 meters
Operating hours: N/A
Operating agency: Civil government, landing fees and diplomatic clearance may be required
Timezone: UTC-3(-2DT)
Fuel: N/A

Runway information:
10/28 - 5577 x 98 feet< - >1700 x 30 meters

Recent METARs:
SBCB 192000Z 10013KT CAVOK 31/21 Q1009
SBCB 192000Z 10013KT CAVOK 31/21 Q1009
SBCB 192000Z 10013KT CAVOK 31/21 Q1009

Airport on the map: